Torna al catalogo

SL-14 DEB

AttivoPO
NORAD 45323·DEBRIS·🇷🇺 Russia

Lanciato Aug 15, 1991 da Plesetsk Cosmodrome

Loading…

Prossimi Passaggi (prossime 24 ore)

TLE

AggiornatoSource: Space-Track

Epoca: Sep 13, 2026, 11:58 UTC

1 45323U 91056BM  26256.49871845  .00000478  00000-0  11401-2 0  9993
2 45323  82.5271  64.0063 0006677 200.2989 159.7871 13.21032950315057

Traccia SL-14 DEB in tempo reale con AllMySat

Download on the App Store